sat.trackr.live / text

‹ back to catalog

STARLINK-33777

NORAD 63843 · 2025-093H

PAYLOAD ACTIVE UNKNOWN

§ Identity

Operator
Country
US
Launch date
2025-05-07
Launch site
AFETR
Launch vehicle
Mass (kg)
RCS (m²)

Purposes: comms

External: N2YO · Heavens-Above · Gunter

§ Orbital elements

Epoch: 2026-09-20T17:26:57.434496Z

Period
94.27 min
Inclination
43.0002°
Eccentricity
0.0001617
Mean motion
15.27586028 rev/d
Perigee alt
481.9 km
Apogee alt
484.1 km
Semi-major
6,861.2 km
B*
3.4892e-4
RAAN
56.1698°
Arg perigee
279.8499°
Mean anomaly
80.2170°
Rev number
7,780

§ Raw data

STARLINK-337771 63843U 25093H   26263.72705364  .00009353  00000+0  34892-3 0  99942 63843  43.0002  56.1698 0001617 279.8499  80.2170 15.27586028 77807

JSON: /api/v1/satellites/63843 · /tle

For live sub-satellite position, see the globe view (requires WebGL).

§ Visibility from observer

Set your observer location to see the next 7 days of passes ≥ 10°. The values pass through the URL so the page stays shareable.

No JS? Fill the form by hand. The geolocation button needs JavaScript.